Location: Peterborough
(44.3091°N, 78.3197°W)
Time: 04:11:52
(UTC-04:00)

Tiros 1 despin weight - Pass Details

Date: 31 March 2023
Orbit: 586 x 632 km, 48.2° (Epoch: 08 June)

Event Time Altitude Azimuth Distance (km) Brightness Sun altitude
Rises 00:44:24 0° 292° (WNW) 2,820 - -41.1°
Reaches altitude 10° 00:46:41 10° 291° (WNW) 1,923 - -41.1°
Maximum altitude 00:51:05 83° 205° (SSW) 605 - -41.3°
Drops below altitude 10° 00:55:33 10° 117° (ESE) 1,943 - -41.4°
Sets 00:57:51 0° 117° (ESE) 2,853 - -41.4°
